Tracking 30306 objects as of 24-Apr-2025
HD Live streaming from Space Station
objects crossing your sky now

THORAD DELTA 1 DEB

Track THORAD DELTA 1 DEB now!
10-day predictions


NORAD ID: 42620
Int'l Code: 1974-089GM
Perigee: 1,468.9 km
Apogee: 1,702.9 km
Inclination: 101.1 °
Period: 117.7 minutes
Semi major axis: 7956 km
RCS: Unknown
Launch date: November 15, 1974
Source: United States (US)
Launch site: AIR FORCE WESTERN TEST RANGE (AFWTR)

Note: This is SATELLITE DEBRIS
Your satellite tracking list
Your tracking list is empty




NASA's NSSDC Master Catalog

Two Line Element Set (TLE):
1 42620U 74089GM  25103.77271858  .00000050  00000-0  79342-3 0  9991
2 42620 101.0836 110.1115 0147032 226.7138 132.1577 12.23173381494296
Source of the keplerian elements: AFSPC